Location: *
(38.3914°N, 75.0697°W)
Time: 02:25:59
(UTC+00:00)

Cosmos 1339 Rocket - Pass Details

Date: 17 February 2020
Orbit: 943 x 1005 km, 82.9° (Epoch: 05 April)

Event Time Altitude Azimuth Distance (km) Brightness Sun altitude
Exits shadow 09:54:46 14° 202° (SSW) 2,390 6.3 -23.0°
Maximum altitude 10:00:00 59° 280° (W) 1,080 4.4 -22.0°
Drops below altitude 10° 10:06:01 10° 359° (N) 2,677 6.8 -20.8°
Sets 10:08:35 0° 3° (N) 3,632 7.5 -20.3°
